This is the latest recevied weather packets stored in our database for station/object KC4GS-13. If no packets are shown the sender has not sent any weather packets the latest 10 day(s).
| Time | Temp. | Humidity | Pressure | Rain* | Wind** | Luminosity | Snow |
|---|---|---|---|---|---|---|---|
| 1787938239 | 28.33° C | 81% | 1019 hPa | 0 mm | - | 322 W/m² | - |
| 1787937934 | 28.33° C | 81% | 1018.9 hPa | 0 mm | - | 340 W/m² | - |
| 1787937630 | 28.33° C | 81% | 1018.9 hPa | 0 mm | - | 275 W/m² | - |
| 1787937326 | 28.33° C | 82% | 1019.5 hPa | 0 mm | - | 256 W/m² | - |
| 1787937022 | 27.78° C | 81% | 1019.1 hPa | 0 mm | - | 270 W/m² | - |
| 1787936721 | 27.78° C | 82% | 1019.3 hPa | 0 mm | - | 245 W/m² | - |
| 1787936416 | 27.78° C | 82% | 1019.4 hPa | 0 mm | - | 236 W/m² | - |
| 1787936115 | 27.78° C | 81% | 1019 hPa | 0 mm | - | 250 W/m² | - |
| 1787935811 | 27.78° C | 81% | 1019.2 hPa | 0 mm | - | 339 W/m² | - |
| 1787935507 | 27.78° C | 81% | 1019.3 hPa | 0 mm | - | 288 W/m² | - |
| 1787935203 | 27.78° C | 81% | 1019.1 hPa | 0 mm | - | 307 W/m² | - |
| 1787934898 | 27.78° C | 82% | 1019.2 hPa | 0 mm | - | 291 W/m² | - |
| 1787934597 | 27.78° C | 83% | 1019.2 hPa | 0 mm | - | 336 W/m² | - |
| 1787934292 | 27.78° C | 84% | 1019.4 hPa | 0 mm | - | 333 W/m² | - |
| 1787933991 | 27.22° C | 84% | 1019.4 hPa | 0 mm | - | 290 W/m² | - |
| 1787933690 | 27.22° C | 85% | 1019.4 hPa | 0 mm | - | 276 W/m² | - |
| 1787933386 | 26.67° C | 85% | 1019.5 hPa | 0 mm | - | 255 W/m² | - |
| 1787933080 | 26.67° C | 85% | 1019.6 hPa | 0 mm | - | 254 W/m² | - |
| 1787932778 | 26.67° C | 86% | 1019.8 hPa | 0 mm | - | 222 W/m² | - |
| 1787932473 | 26.11° C | 86% | 1019.3 hPa | 0 mm | - | 268 W/m² | - |
| 1787932169 | 26.11° C | 87% | 1019.4 hPa | 0 mm | - | 294 W/m² | - |
| 1787931867 | 26.11° C | 87% | 1019.5 hPa | 0 mm | - | 234 W/m² | - |
| 1787931562 | 26.11° C | 88% | 1019.6 hPa | 0 mm | - | 271 W/m² | - |
| 1787931257 | 26.11° C | 88% | 1019.3 hPa | 0 mm | - | 224 W/m² | - |
| 1787930956 | 25.56° C | 89% | 1019.3 hPa | 0 mm | - | 199 W/m² | - |
* Rain latest hour (hover to see other rain measurements)
** Current wind speed in m/s (hover to see current wind gust speed)